QPF
0.00 0.00 0.00 0.00 0.00 0.00 0.00 0.00 0.00 0.00 0.00 0.00 0.00 0.00 0.00 0.00 0.00 0.00 0.00 0.00 0.00 0.00 0.00 0.00 0.00 0.00 0.00 0.00 0.00 0.00 0.00 0.00 0.00 0.00 0.00 0.00 0.00 0.00 0.00 0.00 0.00 0.00 0.00 0.00 0.00
0.00 0.00 0.00 0.00 0.00 0.00 0.00 0.00 0.00 0.00 0.00 0.00 0.00 0.00 0.00 0.00 0.00 0.00 0.00 0.00 0.00 0.00 0.00 0.00 0.00 0.00 0.00 0.00 0.00 0.00 0.00 0.00 0.00 0.00 0.00 0.00 0.00 0.00 0.00 0.00 0.00 0.00 0.00 0.00 0.00
0.00 0.00 0.00 0.00 0.00 0.00 0.00 0.00 0.00 0.00 0.00 0.00 0.00 0.00 0.00 0.00 0.00 0.00 0.00 0.00 0.00 0.00 0.00 0.00 0.00 0.00 0.00 0.00 0.00 0.00 0.00 0.00 0.00 0.00 0.00 0.00 0.00 0.00 0.00 0.00 0.00 0.00 0.00 0.00 0.00
0.00 0.00 0.00 0.00 0.00 0.00 0.00 0.00 0.00 0.00 0.00 0.00 0.00 0.00 0.00 0.00 0.00 0.00 0.00 0.00 0.00 0.00 0.00 0.00 0.00 0.00 0.00 0.00 0.00 0.00 0.00 0.00 0.00 0.00 0.00 0.00 0.00 0.00 0.00 0.00 0.00 0.00 0.00 0.00 0.00
0.00 0.00 0.00 0.00 0.00 0.00 0.00 0.00 0.00 0.00 0.00 0.00 0.00 0.00 0.00 0.00 0.00 0.00 0.00 0.00 0.00 0.00 0.00 0.00 0.00 0.00 0.00 0.00 0.00 0.00 0.00 0.00 0.00 0.00 0.00 0.00 0.00 0.00 0.00 0.00 0.00 0.00 0.00 0.00 0.00
0.00 0.00 0.00 0.00 0.00 0.00 0.00 0.00 0.00 0.00 0.00 0.00 0.00 0.00 0.00 0.00 0.00 0.00 0.00 0.00 0.00 0.00 0.00 0.00 0.00 0.00 0.00 0.00 0.00 0.00 0.00 0.00 0.00 0.00 0.00 0.00 0.00 0.00 0.00 0.00 0.00 0.00 0.00 0.00 0.00
0.00 0.00 0.00 0.00 0.00 0.00 0.00 0.00 0.00 0.00 0.00 0.00 0.00 0.00 0.00 0.00 0.00 0.00 0.00 0.00 0.00 0.00 0.00 0.00 0.00 0.00 0.00 0.00 0.00 0.00 0.00 0.00 0.00 0.00 0.00 0.00 0.00 0.00 0.00 0.00 0.00 0.00 0.00 0.00 0.00
0.00 0.00 0.00 0.00 0.00 0.00 0.00 0.00 0.00 0.00 0.00 0.00 0.00 0.00 0.00 0.00 0.00 0.00 0.00 0.00 0.00 0.00 0.00 0.00 0.00 0.00 0.00 0.00 0.00 0.00 0.00 0.00 0.00 0.00 0.00 0.00 0.00 0.00 0.00 0.00 0.00 0.00 0.00 0.00 0.00
0.00 0.00 0.00 0.00 0.00 0.00 0.00 0.00 0.00 0.00 0.00 0.00 0.00 0.00 0.00 0.00 0.00 0.00 0.00 0.00 0.00 0.00 0.00 0.00 0.00 0.00 0.00 0.00 0.00 0.00 0.00 0.00 0.00 0.00 0.00 0.00 0.00 0.00 0.00 0.00 0.00 0.00 0.00 0.00 0.00
0.00 0.00 0.00 0.00 0.00 0.00 0.00 0.00 0.00 0.00 0.00 0.00 0.00 0.00 0.00 0.00 0.00 0.00 0.00 0.00 0.00 0.00 0.00 0.00 0.00 0.00 0.00 0.00 0.00 0.00 0.00 0.00 0.00 0.00 0.00 0.00 0.00 0.00 0.00 0.00 0.00 0.00 0.00 0.00 0.00
0.00 0.00 0.00 0.00 0.00 0.00 0.00 0.00 0.00 0.00 0.00 0.00 0.00 0.00 0.00 0.00 0.00 0.00 0.00 0.00 0.00 0.00 0.00 0.00 0.00 0.00 0.00 0.00 0.00 0.00 0.00 0.00 0.00 0.00 0.00 0.00 0.00 0.00 0.00 0.00 0.00 0.00 0.00 0.00 0.00
0.00 0.00 0.00 0.00 0.00 0.00 0.00 0.00 0.00 0.00 0.00 0.00 0.00 0.00 0.00 0.00 0.00 0.00 0.00 0.00 0.00 0.00 0.00 0.00 0.00 0.00 0.00 0.00 0.00 0.00 0.00 0.00 0.00 0.00 0.00 0.00 0.00 0.00 0.00 0.00 0.00 0.00 0.00 0.00 0.00
0.00 0.00 0.00 0.00 0.00 0.00 0.00 0.00 0.00 0.00 0.00 0.00 0.00 0.00 0.00 0.00 0.00 0.00 0.00 0.00 0.00 0.00 0.00 0.00 0.00 0.00 0.00 0.00 0.00 0.00 0.00 0.00 0.00 0.00 0.00 0.00 0.00 0.00 0.00 0.00 0.00 0.00 0.00 0.00 0.00
0.00 0.00 0.00 0.00 0.00 0.00 0.00 0.00 0.00 0.00 0.00 0.00 0.00 0.00 0.00 0.00 0.00 0.00 0.00 0.00 0.00 0.00 0.00 0.00 0.00 0.00 0.00 0.00 0.00 0.00 0.00 0.00 0.00 0.00 0.00 0.00 0.00 0.00 0.00 0.00 0.00 0.00 0.00 0.00 0.00
0.00 0.00 0.00 0.00 0.00 0.00 0.00 0.00 0.00 0.00 0.00 0.00 0.00 0.00 0.00 0.00 0.00 0.00 0.00 0.00 0.00 0.00 0.00 0.00 0.00 0.00 0.00 0.00 0.00 0.00 0.00 0.00 0.00 0.00 0.00 0.00 0.00 0.00 0.00 0.00 0.00 0.00 0.00 0.00 0.00
0.00 0.00 0.00 0.00 0.00 0.00 0.00 0.00 0.00 0.00 0.00 0.00 0.00 0.00 0.00 0.00 0.00 0.00 0.00 0.00 0.00 0.00 0.00 0.00 0.00 0.00 0.00 0.00 0.00 0.00 0.00 0.00 0.00 0.00 0.00 0.00 0.00 0.00 0.00 0.00 0.00 0.00 0.00 0.00 0.00
0.00 0.00 0.00 0.00 0.00 0.00 0.00 0.00 0.00 0.00 0.00 0.00 0.00 0.00 0.00 0.00 0.00 0.00 0.00 0.00 0.00 0.00 0.00 0.00 0.00 0.00 0.00 0.00 0.00 0.00 0.00 0.00 0.00 0.01 0.00 0.00 0.00 0.00 0.00 0.00 0.00 0.00 0.01 0.00 0.00
0.00 0.00 0.00 0.00 0.00 0.00 0.00 0.00 0.00 0.00 0.00 0.00 0.00 0.00 0.00 0.00 0.00 0.00 0.00 0.00 0.00 0.00 0.00 0.00 0.00 0.00 0.00 0.00 0.00 0.00 0.00 0.00 0.00 0.00 0.00 0.00 0.00 0.00 0.00 0.00 0.00 0.00 0.00 0.00 0.00
0.00 0.00 0.00 0.00 0.00 0.00 0.00 0.00 0.00 0.00 0.00 0.00 0.00 0.00 0.00 0.00 0.00 0.00 0.00 0.00 0.00 0.00 0.00 0.00 0.00 0.00 0.00 0.00 0.00 0.00 0.01 0.00 0.00 0.00 0.01 0.00 0.00 0.00 0.01 0.01 0.00 0.00 0.00 0.00 0.00
0.00 0.00 0.00 0.00 0.00 0.00 0.00 0.00 0.00 0.00 0.00 0.00 0.00 0.00 0.00 0.00 0.00 0.00 0.00 0.00 0.00 0.00 0.00 0.00 0.00 0.00 0.00 0.00 0.00 0.00 0.00 0.00 0.00 0.01 0.01 0.00 0.01 0.00 0.00 0.00 0.00 0.00 0.00 0.00 0.00
0.00 0.00 0.00 0.00 0.00 0.00 0.00 0.00 0.00 0.00 0.00 0.00 0.00 0.00 0.00 0.00 0.00 0.00 0.00 0.00 0.00 0.00 0.00 0.00 0.00 0.00 0.00 0.00 0.00 0.00 0.01 0.01 0.00 0.00 0.00 0.01 0.01 0.00 0.02 0.03 0.02 0.00 0.00 0.00 0.00
0.00 0.00 0.00 0.00 0.00 0.00 0.00 0.00 0.00 0.00 0.00 0.00 0.00 0.00 0.00 0.00 0.00 0.00 0.00 0.00 0.00 0.00 0.00 0.00 0.00 0.01 0.00 0.00 0.00 0.00 0.00 0.01 0.01 0.02 0.01 0.01 0.00 0.00 0.02 0.01 0.01 0.04 0.02 0.00 0.01
0.00 0.00 0.00 0.00 0.00 0.00 0.00 0.00 0.00 0.00 0.00 0.00 0.00 0.00 0.00 0.00 0.00 0.00 0.00 0.00 0.00 0.00 0.00 0.00 0.01 0.01 0.00 0.00 0.00 0.00 0.00 0.01 0.03 0.04 0.02 0.02 0.00 0.01 0.01 0.00 0.00 0.01 0.05 0.04 0.04
0.00 0.00 0.00 0.00 0.00 0.00 0.00 0.00 0.00 0.00 0.00 0.00 0.00 0.00 0.00 0.00 0.00 0.00 0.00 0.00 0.00 0.00 0.00 0.00 0.02 0.03 0.02 0.01 0.00 0.00 0.00 0.01 0.01 0.02 0.01 0.01 0.01 0.00 0.00 0.00 0.00 0.01 0.04 0.04 0.03
0.00 0.00 0.00 0.00 0.00 0.00 0.00 0.00 0.00 0.00 0.00 0.00 0.00 0.00 0.00 0.00 0.00 0.00 0.00 0.00 0.00 0.00 0.00 0.01 0.01 0.01 0.01 0.01 0.00 0.00 0.01 0.01 0.00 0.01 0.01 0.00 0.01 0.00 0.01 0.01 0.00 0.00 0.04 0.07 0.07
0.00 0.00 0.00 0.00 0.00 0.00 0.00 0.00 0.00 0.00 0.00 0.00 0.00 0.00 0.00 0.00 0.00 0.00 0.00 0.00 0.00 0.00 0.00 0.00 0.00 0.01 0.01 0.00 0.00 0.00 0.01 0.00 0.01 0.01 0.01 0.00 0.00 0.00 0.02 0.01 0.00 0.00 0.01 0.04 0.04
0.00 0.00 0.00 0.00 0.00 0.00 0.00 0.00 0.00 0.00 0.00 0.00 0.00 0.00 0.00 0.00 0.00 0.00 0.00 0.00 0.00 0.00 0.00 0.00 0.01 0.02 0.00 0.00 0.00 0.02 0.00 0.00 0.01 0.01 0.00 0.01 0.00 0.00 0.01 0.00 0.00 0.00 0.00 0.01 0.02
MSLP
1018.40 1018.10 1017.92 1017.70 1017.51 1017.38 1017.27 1017.12 1016.93 1016.75 1016.35 1015.96 1015.72 1015.45 1015.09 1014.69 1013.42 1012.91 1012.42 1013.45 1013.05 1012.93 1012.41 1011.25 1010.46 1010.35 1009.84 1009.26 1009.11 1008.69 1006.78 1005.22 1005.01 1005.22 1005.13 1005.73 1005.94 1005.68 1006.05 1005.82 1005.17 1004.61 1004.14 1004.03 1004.11
1018.39 1018.14 1017.88 1017.69 1017.55 1017.42 1017.29 1017.16 1016.96 1016.78 1016.48 1016.03 1015.76 1015.52 1015.17 1014.79 1012.54 1012.19 1013.37 1013.31 1013.13 1012.61 1011.35 1010.71 1010.12 1009.88 1009.06 1009.09 1009.01 1008.09 1006.89 1005.78 1006.47 1006.59 1006.59 1006.43 1006.46 1006.17 1005.86 1005.49 1004.77 1004.23 1003.99 1004.14 1004.06
1018.41 1018.10 1017.87 1017.68 1017.52 1017.40 1017.28 1017.13 1016.90 1016.65 1016.42 1016.06 1015.71 1015.48 1015.15 1014.61 1012.20 1012.17 1013.13 1013.20 1013.05 1012.49 1011.73 1011.29 1010.32 1009.82 1008.96 1009.12 1009.08 1008.57 1007.29 1007.30 1007.41 1007.54 1007.52 1007.04 1006.51 1006.22 1005.72 1004.93 1004.79 1004.17 1003.70 1003.68 1003.90
1018.47 1018.14 1017.86 1017.62 1017.42 1017.29 1017.17 1017.00 1016.77 1016.53 1016.34 1016.09 1015.71 1015.32 1014.82 1013.78 1011.95 1012.04 1012.88 1013.02 1012.90 1012.22 1011.17 1010.58 1009.88 1009.38 1009.00 1008.79 1009.33 1008.86 1008.05 1008.31 1007.93 1007.95 1007.66 1006.91 1006.50 1005.73 1005.46 1004.84 1004.76 1004.36 1003.93 1003.71 1003.70
1018.48 1018.09 1017.79 1017.49 1017.28 1017.14 1016.95 1016.80 1016.58 1016.38 1016.18 1015.91 1015.57 1015.20 1014.64 1012.21 1011.56 1012.03 1012.73 1012.79 1012.19 1011.72 1011.09 1010.59 1009.89 1009.66 1009.08 1009.23 1009.17 1008.54 1008.30 1008.41 1008.06 1007.64 1007.05 1006.67 1005.89 1005.36 1004.65 1004.68 1004.56 1004.23 1003.90 1003.58 1003.28
1018.39 1018.05 1017.68 1017.38 1017.12 1016.88 1016.75 1016.56 1016.40 1016.14 1015.91 1015.61 1015.28 1014.94 1013.49 1011.44 1011.68 1011.82 1011.95 1011.99 1011.59 1011.19 1010.89 1010.65 1010.40 1010.43 1009.73 1009.26 1009.08 1008.49 1008.32 1007.97 1007.29 1006.56 1006.22 1005.72 1005.25 1005.23 1004.08 1004.03 1004.04 1003.81 1003.44 1003.14 1002.82
1018.29 1017.96 1017.61 1017.26 1017.00 1016.79 1016.55 1016.30 1016.18 1016.02 1015.72 1015.39 1015.09 1014.16 1012.31 1011.76 1011.60 1011.63 1011.61 1011.20 1011.17 1011.13 1010.70 1010.47 1010.72 1010.48 1009.76 1008.87 1008.90 1008.57 1007.78 1006.66 1006.07 1006.09 1005.73 1005.38 1004.79 1003.30 1003.20 1003.43 1003.26 1002.84 1002.65 1002.52 1002.36
1018.16 1017.76 1017.42 1017.16 1016.88 1016.59 1016.30 1016.05 1015.78 1015.65 1015.44 1015.14 1014.90 1013.67 1011.44 1011.53 1011.45 1011.35 1011.06 1010.88 1011.05 1011.08 1011.00 1010.68 1010.67 1010.36 1009.79 1009.15 1008.20 1007.36 1006.94 1005.08 1004.71 1004.87 1004.84 1005.52 1003.11 1002.37 1002.63 1002.78 1002.38 1002.14 1002.01 1001.99 1001.90
1018.18 1017.67 1017.29 1016.93 1016.59 1016.35 1016.13 1015.87 1015.64 1015.43 1015.26 1014.93 1013.99 1012.90 1011.06 1011.38 1010.92 1011.07 1011.13 1010.61 1010.49 1010.65 1010.76 1010.85 1010.47 1009.73 1009.26 1008.30 1006.50 1006.02 1005.09 1004.64 1004.20 1004.12 1004.29 1004.69 1002.48 1002.56 1002.61 1002.36 1001.79 1001.36 1001.33 1001.31 1001.09
1018.23 1017.61 1017.17 1016.84 1016.53 1016.14 1015.98 1015.75 1015.46 1015.24 1014.61 1014.04 1013.49 1012.58 1010.83 1011.28 1011.29 1010.82 1010.77 1010.95 1010.39 1010.05 1009.59 1009.93 1009.42 1008.96 1007.76 1007.09 1006.28 1006.03 1005.53 1004.81 1003.86 1003.37 1003.22 1002.64 1001.12 1001.45 1001.21 1000.61 1000.16 1000.14 1000.05 1000.25 1000.25
1018.23 1017.56 1017.00 1016.64 1016.34 1016.15 1015.73 1015.13 1014.84 1013.93 1012.78 1012.84 1012.65 1012.22 1011.76 1011.65 1011.40 1010.69 1010.70 1010.29 1010.15 1009.64 1008.85 1009.00 1008.97 1007.38 1007.87 1008.03 1007.70 1006.95 1005.90 1004.53 1003.66 1002.97 1002.46 1001.49 1000.51 1000.42 1000.02 999.43 999.04 998.79 998.84 998.84 999.17
1018.20 1017.58 1016.89 1016.46 1016.01 1015.88 1015.47 1013.76 1014.01 1013.94 1012.62 1012.54 1012.44 1012.27 1011.61 1011.73 1011.13 1010.78 1010.64 1010.06 1009.76 1009.10 1008.86 1008.34 1007.57 1008.11 1008.35 1008.09 1007.49 1006.72 1005.64 1004.20 1003.35 1002.43 1002.11 1000.50 999.97 999.14 998.54 998.46 998.22 998.12 998.04 997.91 998.14
1018.18 1017.48 1016.93 1016.48 1016.22 1015.84 1014.32 1013.96 1013.89 1013.64 1012.55 1011.83 1011.77 1011.63 1011.39 1011.09 1011.09 1010.86 1010.81 1010.23 1009.61 1009.14 1008.71 1008.42 1007.85 1008.56 1008.42 1007.87 1007.12 1006.16 1005.24 1004.43 1003.67 1002.75 1001.73 999.89 999.11 997.87 997.89 997.65 997.86 997.76 997.79 997.75 997.61
1018.07 1017.35 1016.82 1016.42 1016.58 1014.51 1013.76 1014.15 1013.99 1013.84 1011.88 1011.67 1011.25 1011.19 1011.02 1010.71 1010.90 1011.19 1011.18 1010.91 1009.56 1009.34 1009.18 1008.24 1008.46 1008.56 1008.19 1007.73 1007.43 1005.99 1005.31 1005.14 1004.13 1003.25 1001.54 1001.87 999.59 999.07 997.66 997.09 997.01 997.06 997.12 996.99 996.90
1017.89 1017.22 1016.66 1016.20 1014.96 1013.72 1014.19 1013.94 1013.73 1013.74 1011.74 1011.88 1011.17 1011.47 1010.90 1011.34 1011.37 1010.72 1011.28 1010.63 1009.99 1009.64 1009.76 1007.95 1008.32 1008.35 1008.08 1007.64 1007.74 1006.56 1006.26 1005.33 1004.06 1003.22 1002.59 1001.44 1000.33 998.18 996.94 996.55 996.86 997.02 996.99 996.74 996.26
1017.57 1016.99 1016.46 1015.29 1014.53 1013.97 1014.02 1013.91 1013.45 1012.40 1011.24 1011.60 1011.52 1011.08 1010.68 1010.98 1011.15 1011.00 1010.93 1010.58 1010.48 1009.84 1009.55 1008.28 1008.60 1008.81 1008.21 1008.06 1007.34 1007.05 1005.88 1004.32 1003.88 1003.65 1003.02 1000.90 1001.01 999.22 998.23 998.66 997.92 997.61 997.31 996.40 995.67
1017.43 1016.67 1016.36 1015.00 1014.10 1014.06 1014.09 1013.38 1011.98 1011.26 1011.85 1011.83 1011.62 1011.41 1011.18 1011.03 1010.91 1010.95 1010.72 1010.46 1010.58 1009.82 1008.86 1007.99 1007.66 1008.38 1008.70 1007.35 1006.43 1006.71 1006.14 1005.55 1004.38 1003.54 1001.59 1002.12 1001.93 1000.21 1000.29 999.99 999.56 998.55 996.90 995.55 994.45
1017.17 1016.37 1015.55 1014.56 1014.25 1014.32 1013.77 1012.49 1011.46 1011.99 1012.03 1012.43 1012.18 1011.78 1011.58 1011.61 1011.23 1011.13 1010.94 1010.49 1011.14 1011.14 1009.56 1008.75 1007.50 1008.10 1008.32 1007.88 1007.39 1006.99 1007.96 1008.40 1007.53 1005.62 1003.37 1002.90 1002.48 1001.70 1002.11 1001.53 1000.05 998.95 997.30 995.67 993.76
1016.85 1014.77 1014.04 1014.09 1014.37 1014.29 1013.09 1011.52 1011.78 1012.62 1013.05 1012.82 1012.12 1011.72 1011.42 1011.65 1011.87 1011.08 1011.01 1011.43 1011.67 1011.82 1011.76 1010.38 1008.58 1008.53 1008.17 1007.76 1007.69 1007.16 1007.89 1009.16 1009.24 1007.84 1006.03 1002.95 1002.99 1003.40 1002.87 1001.78 1000.41 999.42 997.93 996.05 993.92
1017.06 1014.80 1013.44 1013.98 1014.25 1013.53 1012.13 1012.49 1012.86 1013.72 1013.78 1013.46 1012.79 1012.74 1012.13 1012.08 1012.01 1011.33 1011.21 1011.98 1012.18 1012.34 1012.47 1011.98 1010.78 1008.59 1007.81 1007.43 1007.52 1007.66 1008.69 1009.28 1009.91 1008.67 1006.04 1003.34 1003.16 1004.27 1003.59 1002.61 1001.09 999.38 998.18 996.90 994.82
1016.85 1014.39 1013.88 1013.65 1013.46 1012.30 1012.18 1013.15 1013.76 1014.17 1014.46 1014.06 1013.58 1013.24 1012.91 1012.89 1012.68 1011.91 1011.70 1011.84 1012.32 1012.32 1012.40 1011.98 1011.88 1009.43 1007.52 1006.48 1006.78 1007.00 1008.04 1008.94 1010.19 1009.61 1008.23 1005.40 1003.78 1004.47 1004.24 1003.60 1002.03 1000.28 998.99 997.23 994.33
1016.91 1014.12 1014.14 1013.67 1012.65 1013.26 1013.35 1014.57 1015.35 1014.56 1014.70 1014.49 1014.26 1013.73 1013.63 1013.51 1012.76 1012.21 1011.91 1011.93 1012.49 1012.58 1012.21 1011.96 1011.44 1009.84 1007.42 1006.61 1007.19 1006.72 1007.31 1008.18 1009.40 1008.99 1008.50 1007.39 1004.53 1003.91 1004.73 1004.05 1002.58 1001.47 999.86 997.74 994.18
1017.36 1015.65 1014.66 1013.63 1013.28 1013.94 1014.91 1015.14 1015.38 1015.29 1015.10 1014.93 1014.61 1014.38 1014.27 1013.89 1013.54 1012.46 1012.13 1012.31 1012.41 1012.60 1012.51 1012.35 1011.49 1009.54 1007.09 1006.68 1006.81 1006.90 1007.17 1007.77 1008.25 1008.21 1008.05 1007.55 1004.90 1004.37 1004.73 1004.02 1002.78 1002.31 1000.93 999.01 995.88
1017.99 1015.72 1015.22 1015.26 1015.79 1015.56 1015.64 1015.71 1015.51 1015.71 1015.57 1015.61 1015.23 1014.97 1014.61 1013.90 1013.60 1012.88 1012.34 1012.40 1012.58 1012.58 1012.67 1012.94 1011.53 1010.49 1009.58 1008.31 1007.76 1007.32 1006.71 1007.18 1007.29 1007.49 1007.97 1007.48 1006.05 1004.88 1004.98 1004.78 1003.75 1003.08 1002.19 1000.56 998.43
1018.52 1017.96 1018.06 1016.11 1016.15 1016.69 1016.64 1016.71 1016.14 1015.94 1015.91 1015.79 1015.12 1015.21 1015.13 1014.40 1013.41 1012.39 1012.31 1012.05 1012.16 1012.39 1012.03 1012.14 1010.97 1010.14 1009.08 1008.33 1007.27 1006.76 1006.99 1006.52 1006.75 1007.34 1008.01 1007.65 1006.20 1006.19 1005.76 1005.27 1005.14 1004.26 1003.01 1001.49 1000.26
1019.34 1018.90 1018.25 1017.54 1017.46 1017.20 1017.33 1017.01 1016.85 1016.82 1016.51 1015.38 1015.41 1015.59 1015.34 1014.80 1014.40 1013.12 1012.84 1012.50 1012.34 1012.00 1011.88 1011.88 1010.97 1010.03 1008.78 1007.03 1006.61 1006.07 1006.52 1006.23 1006.32 1007.07 1007.58 1006.79 1006.23 1006.54 1006.12 1005.67 1005.51 1004.78 1003.78 1002.71 1001.74
1020.55 1020.41 1019.54 1018.39 1017.61 1017.08 1017.09 1017.57 1017.34 1017.35 1016.43 1016.27 1016.12 1015.67 1014.94 1014.52 1014.39 1013.82 1013.28 1012.90 1012.80 1012.56 1012.24 1011.89 1010.81 1010.06 1007.86 1006.94 1005.74 1005.90 1006.14 1006.01 1006.08 1006.72 1006.96 1006.52 1006.17 1006.23 1005.92 1005.95 1006.11 1005.47 1004.78 1003.93 1002.72
Thickness
5709 5709 5708 5708 5708 5708 5709 5709 5709 5709 5711 5713 5713 5714 5714 5716 5724 5731 5726 5721 5722 5721 5725 5732 5735 5732 5735 5731 5731 5731 5724 5727 5731 5723 5728 5740 5732 5743 5744 5738 5748 5759 5767 5777 5786
5709 5709 5709 5708 5707 5707 5707 5706 5706 5707 5708 5710 5710 5710 5710 5712 5729 5725 5718 5716 5716 5719 5726 5724 5723 5725 5724 5720 5719 5717 5715 5719 5720 5711 5706 5717 5720 5725 5725 5727 5738 5746 5765 5770 5773
5708 5709 5709 5708 5707 5706 5705 5704 5705 5706 5706 5707 5707 5707 5707 5709 5724 5717 5714 5712 5711 5713 5717 5716 5719 5717 5714 5712 5705 5701 5699 5701 5696 5693 5694 5695 5702 5714 5713 5716 5724 5730 5746 5756 5760
5706 5707 5707 5708 5707 5706 5705 5705 5705 5705 5705 5705 5706 5706 5707 5712 5703 5717 5710 5707 5706 5708 5713 5711 5711 5704 5700 5694 5690 5680 5690 5679 5679 5678 5677 5680 5690 5695 5699 5711 5718 5725 5738 5741 5745
5704 5706 5706 5707 5706 5705 5705 5705 5704 5705 5704 5703 5703 5704 5708 5717 5709 5712 5705 5702 5703 5704 5701 5699 5698 5694 5688 5684 5679 5674 5673 5669 5670 5670 5673 5675 5676 5680 5690 5693 5704 5715 5724 5729 5737
5704 5704 5705 5706 5706 5705 5704 5704 5703 5703 5703 5703 5702 5701 5709 5703 5713 5708 5704 5701 5701 5700 5696 5695 5689 5686 5681 5677 5668 5671 5666 5663 5668 5673 5673 5669 5671 5666 5683 5688 5686 5695 5704 5717 5725
5703 5703 5704 5705 5704 5704 5703 5703 5703 5702 5701 5700 5699 5702 5708 5699 5709 5703 5701 5701 5700 5694 5689 5693 5686 5677 5678 5672 5671 5663 5657 5669 5672 5669 5669 5671 5657 5668 5684 5682 5679 5687 5693 5703 5712
5702 5703 5704 5703 5703 5704 5704 5704 5703 5702 5700 5698 5696 5701 5702 5709 5706 5702 5700 5697 5696 5693 5687 5687 5682 5673 5667 5669 5667 5664 5661 5666 5679 5676 5674 5659 5660 5683 5684 5677 5677 5680 5683 5688 5698
5700 5702 5703 5703 5703 5703 5703 5703 5702 5701 5699 5696 5702 5700 5697 5709 5702 5701 5697 5690 5691 5688 5683 5679 5674 5667 5665 5660 5669 5671 5662 5663 5667 5677 5668 5654 5663 5674 5675 5671 5671 5677 5676 5677 5686
5697 5700 5702 5702 5701 5702 5702 5701 5700 5698 5699 5699 5697 5692 5705 5689 5695 5697 5697 5688 5682 5681 5678 5671 5668 5659 5669 5666 5653 5649 5649 5656 5658 5673 5670 5665 5673 5673 5677 5680 5679 5678 5680 5675 5677
5695 5698 5701 5701 5700 5699 5699 5704 5706 5704 5708 5696 5691 5688 5689 5692 5694 5689 5689 5684 5679 5674 5665 5667 5652 5661 5653 5649 5646 5644 5645 5649 5664 5675 5665 5668 5669 5669 5677 5678 5676 5679 5678 5679 5675
5692 5695 5699 5700 5701 5699 5700 5704 5696 5693 5689 5695 5690 5684 5691 5686 5675 5679 5684 5671 5667 5660 5664 5662 5659 5655 5649 5645 5642 5641 5641 5651 5665 5675 5667 5671 5665 5677 5679 5671 5673 5672 5671 5674 5673
5688 5692 5694 5696 5695 5696 5702 5697 5696 5692 5683 5688 5688 5681 5681 5684 5668 5668 5671 5666 5660 5655 5655 5645 5655 5646 5639 5638 5636 5641 5641 5646 5647 5659 5668 5672 5661 5677 5671 5671 5666 5666 5664 5663 5663
5685 5689 5691 5692 5691 5701 5698 5693 5690 5687 5678 5673 5676 5678 5679 5678 5662 5668 5663 5655 5658 5646 5644 5649 5648 5637 5635 5631 5630 5629 5649 5640 5641 5640 5641 5644 5615 5646 5660 5661 5663 5660 5659 5657 5657
5683 5686 5687 5688 5695 5697 5690 5689 5686 5679 5659 5670 5672 5680 5675 5657 5654 5656 5656 5651 5641 5640 5635 5646 5637 5631 5625 5628 5624 5625 5635 5635 5642 5642 5632 5638 5621 5649 5666 5656 5653 5651 5650 5649 5652
5681 5683 5684 5689 5690 5690 5687 5685 5681 5666 5654 5659 5664 5660 5658 5654 5647 5647 5643 5649 5642 5636 5634 5642 5640 5627 5628 5624 5627 5628 5633 5647 5644 5633 5608 5639 5621 5630 5639 5631 5637 5639 5637 5638 5637
5676 5680 5682 5684 5683 5684 5680 5677 5668 5660 5665 5651 5648 5653 5648 5642 5639 5636 5632 5629 5621 5617 5627 5637 5636 5629 5622 5624 5634 5627 5620 5596 5619 5622 5642 5629 5608 5625 5624 5622 5617 5617 5630 5633 5630
5672 5677 5681 5681 5680 5677 5675 5669 5653 5651 5648 5650 5644 5642 5631 5632 5630 5627 5623 5622 5620 5613 5620 5615 5620 5622 5620 5616 5611 5617 5598 5572 5571 5596 5619 5623 5599 5607 5605 5605 5613 5615 5619 5620 5626
5668 5679 5680 5678 5673 5670 5667 5659 5651 5641 5639 5634 5640 5632 5632 5628 5618 5623 5619 5609 5608 5606 5588 5599 5612 5618 5617 5618 5614 5610 5596 5590 5564 5576 5576 5620 5611 5596 5597 5597 5604 5605 5608 5614 5626
5661 5670 5676 5670 5666 5665 5664 5638 5640 5634 5629 5627 5618 5620 5615 5616 5610 5615 5611 5605 5597 5599 5597 5587 5578 5611 5614 5618 5613 5604 5597 5577 5565 5573 5585 5628 5611 5572 5577 5579 5593 5602 5603 5606 5621
5655 5661 5665 5665 5664 5663 5645 5635 5630 5629 5621 5616 5614 5610 5611 5604 5602 5606 5605 5606 5599 5596 5595 5590 5573 5595 5615 5617 5605 5603 5587 5582 5560 5564 5567 5580 5605 5584 5579 5576 5584 5593 5597 5606 5632
5643 5650 5656 5656 5648 5638 5631 5618 5607 5618 5618 5613 5612 5610 5603 5601 5600 5601 5598 5599 5598 5593 5586 5591 5582 5576 5603 5620 5611 5611 5596 5589 5561 5569 5569 5563 5587 5606 5579 5577 5587 5586 5591 5608 5642
5628 5632 5644 5647 5629 5623 5615 5612 5608 5606 5606 5605 5602 5604 5601 5596 5587 5600 5599 5600 5597 5587 5581 5582 5576 5581 5602 5610 5608 5597 5597 5591 5587 5583 5571 5560 5583 5601 5581 5576 5587 5580 5584 5598 5629
5619 5624 5626 5622 5612 5608 5603 5601 5601 5604 5601 5598 5597 5598 5595 5594 5596 5591 5594 5593 5592 5586 5580 5573 5578 5573 5560 5582 5589 5581 5597 5594 5591 5578 5564 5567 5573 5589 5575 5565 5576 5575 5578 5590 5608
5607 5599 5593 5607 5606 5597 5596 5592 5594 5592 5597 5595 5596 5591 5585 5582 5591 5598 5597 5596 5592 5585 5587 5579 5577 5584 5589 5588 5595 5595 5587 5595 5587 5580 5560 5562 5579 5570 5567 5567 5566 5571 5579 5589 5595
5595 5593 5595 5596 5592 5592 5584 5588 5585 5583 5585 5594 5588 5583 5582 5579 5580 5584 5588 5586 5581 5586 5583 5581 5574 5583 5582 5605 5602 5598 5591 5596 5595 5579 5568 5581 5581 5571 5569 5570 5568 5571 5579 5586 5592
5580 5577 5581 5580 5589 5591 5589 5579 5579 5578 5588 5586 5582 5581 5583 5586 5583 5584 5585 5583 5579 5574 5573 5572 5579 5573 5588 5603 5609 5585 5589 5594 5593 5581 5576 5570 5579 5577 5573 5573 5564 5569 5576 5584 5591